Regional Weather Roundup
Issued by NWS Newport/Morehead, NC

Current Version | Previous Version | Text Only | Print | Product List | Glossary Off
Versions: 1 2 3 4 5 6 7 8 9 10 11 12 13 14 15 16 17 18 19 20 21 22 23 24 25 26 27 28 29 30 31 32 33 34 35 36 37 38 39 40 41 42 43 44 45 46 47 48 49 50

000
ASUS42 KMHX 222225
RWRMHX
WEATHER ROUNDUP FOR EASTERN NORTH CAROLINA
NATIONAL WEATHER SERVICE NEWPORT/MOREHEAD CITY NC
600 PM EDT FRI SEP 22 2017

NOTE: "FAIR" INDICATES FEW OR NO CLOUDS BELOW 12,000 FEET
WITH NO SIGNIFICANT WEATHER AND/OR OBSTRUCTIONS TO VISIBILITY

NCZ015>017-031-032-045>047-102-103-222300-
NORTH COAST

CITY           SKY/WX    TMP DP  RH WIND       PRES   REMARKS
EDENTON        MOSUNNY   81  71  72 CALM      29.99R
ELIZABETH CITY SUNNY     81  69  67 N7        29.98S
KITTY HAWK     CLEAR     74  67  78 CALM      29.98R
MANTEO         SUNNY     78  64  63 E7        30.00R

$$

NCZ045>047-081-094-103-104-222300-
CENTRAL COAST

CITY           SKY/WX    TMP DP  RH WIND       PRES   REMARKS
FRISCO         SUNNY     80  71  74 SW3       29.99R

$$

NCZ095-097-098-100-101-222300-
SOUTHERN COAST

CITY           SKY/WX    TMP DP  RH WIND       PRES   REMARKS
BEAUFORT       SUNNY     80  70  71 S6        29.99S
CEDAR ISLAND   NOT AVBL
JACKSONVILLE   SUNNY     81  72  74 S6        29.98S
PINEY ISLAND     N/A    N/A N/A N/A S6        29.99R
WILMINGTON     SUNNY     82  68  62 SE8       29.99S


$$

NCZ011>013-027>030-043-044-078>080-089-090>093-098-222300-
COASTAL PLAIN

CITY           SKY/WX    TMP DP  RH WIND       PRES   REMARKS
AHOSKIE        CLOUDY    79  68  69 CALM      29.99R
CLINTON        SUNNY     86  66  50 CALM      29.99S
ELIZABETHTOWN  NOT AVBL
GOLDSBORO      SUNNY     86  64  47 N5        29.97S
GREENVILLE     SUNNY     86  64  48 N3        30.00S
HAVELOCK       MOSUNNY   82  71  69 S8        29.99R
KENANSVILLE    SUNNY     84  64  51 CALM      29.98F
KINSTON        SUNNY     84  64  51 CALM      29.99S
NEW BERN       SUNNY     84  66  54 NE6       29.99R
RICHLANDS      SUNNY     85  67  54 CALM      29.99S
ROCKY MOUNT    SUNNY     85  64  49 N5        29.98F
WASHINGTON     SUNNY     85  63  47 CALM      29.99R
WHITEVILLE     MOSUNNY   82  70  67 S3        30.00R

$$

AMZ130-135-150-152-154-156-158-170-250-252-270-ANZ085-086-088-633-658-670-222300-
MARINE OBSERVATIONS

STATION/POSITION TIME  TEMP    WIND        PRES    WAVE   SWELL
                       AIR SEA DIR/SP/G            HT/PER HT/PER
                 (UTC) (F)     (DEG/KT/KT) (MB)    (FT/S) (FT/S)
CHESAPEAKE LIGHT NOT AVBL
64 E VA BEACH    2150   72 72  350/  6/  8 1015.6    9/11   8/11
DUCK             2200   77 77   80/  3/  3 1015.1
2 E DUCK         2200      76                N/A     5/12   3/12
OREGON INLET     2200           60/  3/  5   N/A
13E OREGON INLT  2148      76                N/A     7/13   7/13
HATTERAS CG      2200   80 79  200/  2/  5 1015.6
DIAMOND BUOY     2150   78 79  220/  4/  6 1015.6    6/13   5/13
CAPE LOOKOUT     2200   79     150/  6/  6 1015.5
BEAUFORT LAB     2200   81 78  170/  6/  8 1015.1
30 SE NEW RVR IN 2208   81     180/  4/  6 1015.5
30 SE NEW RVR IN NOT AVBL
27 SE WRIGHTSVLE 2208   82 81  110/  4/  6 1015.6
5 SE WRIGHTSVLE  2208   80 80  160/ 10/ 12 1015.4
225 S CAPE HAT   2150   79 80   60/ 10/ 12 1014.5    7/12   7/12
41 SE CHARLESTON 2210   80 82   60/  8/ 10 1014.5

$$



USA.gov is the U.S. government's official web portal to all federal, state and local government web resources and services.